Weather History for Rickenbacker, OH

Change the Weather History Date:

Wednesday, February 13, 2013

  Actual Average Record
Temperature  
Mean Temperature 28 °F -  
Max Temperature 34 °F 41 °F 54 °F (2011)
Min Temperature 21 °F 26 °F 14 °F (2003)
Degree Days  
Heating Degree Days 38    
Moisture  
Dew Point 25 °F    
Average Humidity 81    
Maximum Humidity 89    
Minimum Humidity 70    
Precipitation  
Precipitation 0.00 in - - ()
Sea Level Pressure  
Sea Level Pressure 29.82 in    
Wind  
Wind Speed 5 mph (NW)    
Max Wind Speed 9 mph    
Max Gust Speed -    
Visibility 6 miles    
Events Snow    
Averages and records for this station are not official NWS values.
T = Trace of Precipitation, MM = Missing Value Source: NWS Daily Summary

Daily Weather History Graph

Daily Weather History Graph

Search for Another Location

Airport:

Trip Planner

Search our weather history database for the weather conditions in past years. The results will help you decide how hot, cold, wet, or windy it might be!

Date:

Astronomy

Feb. 13, 2013 Rise Set
Actual Time 7:26 AM EST 6:05 PM EST
Civil Twilight 6:58 AM EST 6:33 PM EST
Nautical Twilight 6:27 AM EST 7:05 PM EST
Astronomical Twilight 5:55 AM EST 7:36 PM EST
Moon 8:55 AM EST (2/13) 10:06 PM EST (2/13)
Length of Visible Light 11h 34m
Length of Day
10h 39m
Waxing Crescent, 13% of the Moon is Illuminated
Feb 13
Waxing Crescent
Feb 17
First Quarter
Feb 25
Full
Mar 4
Last Quarter
Mar 11
New

Hourly Weather History & Observations

Time (EST) Temp. Windchill Dew Point Humidity Pressure Visibility Wind Dir Wind Speed Gust Speed Precip Events Conditions
12:15 AM 31.6 °F 28.3 °F 24.8 °F 76% 29.91 in 10.0 mi SSE 3.5 mph - N/A   Clear
12:35 AM 30.9 °F - 25.3 °F 80% 29.91 in 10.0 mi Calm Calm - N/A   Clear
12:55 AM 32.0 °F - 25.5 °F 77% 29.90 in 10.0 mi Calm Calm - N/A   Scattered Clouds
1:15 AM 32.9 °F - 25.2 °F 73% 29.88 in 10.0 mi Calm Calm - N/A   Scattered Clouds
1:35 AM 33.4 °F 30.4 °F 24.6 °F 70% 29.88 in 10.0 mi NNW 3.5 mph - N/A   Clear
1:55 AM 32.2 °F 26.7 °F 24.3 °F 73% 29.87 in 10.0 mi NNW 5.8 mph - N/A   Clear
2:15 AM 32.0 °F 26.4 °F 24.8 °F 75% 29.88 in 10.0 mi NNW 5.8 mph - N/A   Mostly Cloudy
2:35 AM 32.5 °F 26.2 °F 25.3 °F 75% 29.87 in 10.0 mi North 6.9 mph - N/A   Overcast
2:55 AM 33.1 °F 27.7 °F 26.2 °F 76% 29.87 in 10.0 mi North 5.8 mph - N/A   Mostly Cloudy
3:15 AM 32.9 °F 27.5 °F 26.4 °F 77% 29.87 in 10.0 mi NNW 5.8 mph - N/A   Clear
3:35 AM 32.4 °F 26.9 °F 26.1 °F 78% 29.87 in 10.0 mi NNW 5.8 mph - N/A   Clear
3:55 AM 32.4 °F 26.9 °F 26.2 °F 78% 29.86 in 10.0 mi North 5.8 mph - N/A   Clear
4:15 AM 32.4 °F 26.0 °F 26.4 °F 79% 29.85 in 10.0 mi North 6.9 mph - N/A   Scattered Clouds
4:35 AM 32.2 °F 25.0 °F 26.4 °F 79% 29.85 in 10.0 mi North 8.1 mph - N/A   Scattered Clouds
4:55 AM 32.0 °F 26.4 °F 26.2 °F 79% 29.85 in 10.0 mi North 5.8 mph - N/A   Scattered Clouds
5:15 AM 32.0 °F 26.4 °F 25.9 °F 78% 29.85 in 10.0 mi North 5.8 mph - N/A   Mostly Cloudy
5:35 AM 31.8 °F 25.4 °F 25.9 °F 79% 29.84 in 7.0 mi North 6.9 mph - N/A   Mostly Cloudy
5:55 AM 31.8 °F 23.9 °F 26.2 °F 80% 29.83 in 7.0 mi North 9.2 mph - N/A   Mostly Cloudy
6:15 AM 32.0 °F 25.6 °F 26.2 °F 79% 29.82 in 7.0 mi North 6.9 mph - N/A   Mostly Cloudy
6:35 AM 32.0 °F 24.8 °F 26.1 °F 79% 29.81 in 7.0 mi North 8.1 mph - N/A   Overcast
6:55 AM 31.8 °F 23.9 °F 26.1 °F 79% 29.80 in 7.0 mi North 9.2 mph - N/A   Overcast
7:15 AM 31.5 °F 23.5 °F 25.9 °F 80% 29.78 in 5.0 mi North 9.2 mph - N/A   Haze
7:35 AM 31.5 °F 23.5 °F 25.9 °F 80% 29.77 in 5.0 mi North 9.2 mph - N/A   Haze
7:55 AM 31.6 °F 25.1 °F 26.1 °F 80% 29.78 in 5.0 mi North 6.9 mph - N/A   Haze
8:15 AM 32.0 °F 25.6 °F 26.2 °F 79% 29.77 in 5.0 mi North 6.9 mph - N/A   Haze
8:35 AM 32.0 °F 27.5 °F 26.1 °F 79% 29.79 in 5.0 mi North 4.6 mph - N/A   Haze
8:55 AM 32.0 °F 26.4 °F 26.2 °F 79% 29.79 in 7.0 mi North 5.8 mph - N/A   Overcast
9:15 AM 32.0 °F 26.4 °F 26.4 °F 80% 29.79 in 7.0 mi North 5.8 mph - N/A   Overcast
9:35 AM 32.4 °F 26.9 °F 26.6 °F 79% 29.80 in 7.0 mi North 5.8 mph - N/A   Overcast
9:55 AM 32.9 °F 25.9 °F 26.6 °F 78% 29.79 in 7.0 mi NNW 8.1 mph - N/A   Overcast
10:15 AM 33.4 °F 28.1 °F 26.6 °F 76% 29.81 in 7.0 mi NNW 5.8 mph - N/A   Overcast
10:35 AM 33.4 °F 28.1 °F 26.8 °F 77% 29.81 in 7.0 mi NNW 5.8 mph - N/A   Overcast
10:55 AM 33.4 °F 26.6 °F 26.6 °F 76% 29.82 in 7.0 mi WNW 8.1 mph - N/A   Overcast
11:15 AM 33.4 °F 28.1 °F 26.6 °F 76% 29.81 in 7.0 mi NNW 5.8 mph - N/A   Overcast
11:35 AM 33.3 °F 27.9 °F 26.6 °F 77% 29.80 in 7.0 mi NW 5.8 mph - N/A   Overcast
11:55 AM 33.4 °F 28.1 °F 26.6 °F 76% 29.79 in 7.0 mi NNW 5.8 mph - N/A   Overcast
12:15 PM 33.3 °F 26.4 °F 27.0 °F 78% 29.78 in 1.2 mi NNW 8.1 mph - N/A Snow Light Snow
12:35 PM 32.2 °F 26.7 °F 28.2 °F 85% 29.77 in 0.8 mi NW 5.8 mph - N/A Snow Light Snow
12:55 PM 31.8 °F 25.4 °F 28.4 °F 87% 29.76 in 0.5 mi NNW 6.9 mph - N/A Snow Snow
1:15 PM 31.6 °F 27.0 °F 28.4 °F 88% 29.75 in 0.2 mi NW 4.6 mph - N/A Snow Snow
1:35 PM 31.5 °F 26.8 °F 28.2 °F 88% 29.75 in 0.2 mi NW 4.6 mph - N/A Snow Snow
1:55 PM 31.5 °F 26.8 °F 28.2 °F 88% 29.75 in 0.8 mi NW 4.6 mph - N/A Snow Light Snow
2:15 PM 31.8 °F 26.2 °F 28.0 °F 86% 29.75 in 1.2 mi WNW 5.8 mph - N/A Snow Light Snow
2:35 PM 32.2 °F 28.9 °F 28.4 °F 86% 29.74 in 1.5 mi WNW 3.5 mph - N/A Snow Light Snow
2:55 PM 32.5 °F 28.1 °F 28.6 °F 85% 29.75 in 2.5 mi West 4.6 mph - N/A   Overcast
3:15 PM 32.7 °F 28.3 °F 28.9 °F 86% 29.76 in 3.0 mi WSW 4.6 mph - N/A   Overcast
3:35 PM 33.1 °F 26.9 °F 28.9 °F 85% 29.76 in 3.0 mi WNW 6.9 mph - N/A   Overcast
3:55 PM 33.8 °F 28.6 °F 28.0 °F 79% 29.76 in 5.0 mi WNW 5.8 mph - N/A   Haze
4:15 PM 34.0 °F 28.8 °F 27.7 °F 78% 29.77 in 5.0 mi WNW 5.8 mph - N/A   Haze
4:55 PM 34.0 °F 28.8 °F 27.3 °F 77% 29.78 in 7.0 mi WNW 5.8 mph - N/A   Overcast
5:15 PM 33.6 °F - 27.1 °F 77% 29.78 in 7.0 mi Calm Calm - N/A   Mostly Cloudy
5:35 PM 33.4 °F 30.4 °F 27.1 °F 78% 29.78 in 7.0 mi WSW 3.5 mph - N/A   Mostly Cloudy
5:55 PM 32.7 °F 27.3 °F 27.1 °F 80% 29.79 in 7.0 mi WSW 5.8 mph - N/A   Scattered Clouds
6:15 PM 31.6 °F 26.0 °F 26.2 °F 80% 29.80 in 5.0 mi WSW 5.8 mph - N/A   Haze
6:35 PM 30.9 °F 27.5 °F 25.9 °F 82% 29.81 in 5.0 mi SW 3.5 mph - N/A   Haze
6:55 PM 29.7 °F 24.7 °F 25.0 °F 83% 29.82 in 4.0 mi SW 4.6 mph - N/A   Scattered Clouds
7:15 PM 28.4 °F 23.3 °F 24.6 °F 86% 29.83 in 4.0 mi SSW 4.6 mph - N/A   Clear
7:35 PM 27.9 °F 21.5 °F 24.4 °F 87% 29.84 in 3.0 mi SSW 5.8 mph - N/A   Clear
7:55 PM 27.3 °F 20.9 °F 24.3 °F 88% 29.85 in 2.5 mi SSW 5.8 mph - N/A   Clear
8:15 PM 26.4 °F 19.8 °F 23.4 °F 88% 29.86 in 2.0 mi SSW 5.8 mph - N/A   Clear
8:35 PM 25.9 °F 19.2 °F 22.8 °F 88% 29.86 in 3.0 mi SSW 5.8 mph - N/A   Clear
8:55 PM 25.5 °F 18.7 °F 22.3 °F 88% 29.86 in 3.0 mi SSW 5.8 mph - N/A   Clear
9:15 PM 24.4 °F 18.6 °F 21.0 °F 87% 29.86 in 2.0 mi South 4.6 mph - N/A   Clear
9:35 PM 21.4 °F 13.8 °F 18.5 °F 89% 29.87 in 1.8 mi South 5.8 mph - N/A   Mist
9:55 PM 21.6 °F 15.3 °F 18.7 °F 89% 29.87 in 2.0 mi South 4.6 mph - N/A   Clear
10:15 PM 21.7 °F 14.3 °F 18.7 °F 88% 29.88 in 2.5 mi South 5.8 mph - N/A   Clear
10:35 PM 22.1 °F 14.7 °F 19.4 °F 89% 29.88 in 2.5 mi South 5.8 mph - N/A   Clear
10:55 PM 23.0 °F 15.8 °F 20.1 °F 89% 29.88 in 3.0 mi South 5.8 mph - N/A   Clear
11:15 PM 23.5 °F 16.4 °F 20.5 °F 88% 29.88 in 2.5 mi SSE 5.8 mph - N/A   Clear
11:35 PM 23.0 °F 15.8 °F 20.1 °F 89% 29.88 in 1.5 mi South 5.8 mph - N/A   Mist
11:55 PM 23.4 °F 18.9 °F 20.5 °F 89% 29.88 in 1.8 mi South 3.5 mph - N/A   Mist